Location: Hradec Kralove
(50.2170°N, 15.8330°E)
Time: 10:49:36
(UTC+01:00)

ISS - Pass Details

Date: 24 February 2026
Orbit: 416 x 426 km, 51.6° (Epoch: 10 March)

Event Time Altitude Azimuth Distance (km) Brightness Sun altitude
Exits shadow 05:04:07 50° 304° (WNW) 539 -3.6 -17.8°
Maximum altitude 05:04:47 66° 2° (N) 459 -3.6 -17.7°
Drops below altitude 10° 05:08:07 10° 85° (E) 1,494 0.4 -17.1°
Sets 05:10:13 0° 88° (E) 2,356 1.9 -16.8°
